Location: Street
(51.1247°N, 2.7429°W)
Time: 02:59:21
(UTC+00:00)

deb Explorer IX - Pass Details

Date: 13 December 2020
Orbit: 536 x 1104 km, 38.8° (Epoch: 20 January)

Event Time Altitude Azimuth Distance (km) Brightness Sun altitude
Rises 14:30:10 0° 260° (W) 3,920 ? 9.1°
Reaches altitude 10° 14:33:29 10° 248° (WSW) 2,950 ? 8.9°
Maximum altitude 14:39:08 25° 197° (SSW) 1,996 ? 8.4°
Drops below altitude 10° 14:44:29 10° 145° (SE) 2,770 ? 7.9°
Sets 14:47:29 0° 133° (SE) 3,634 ? 7.6°
